Content
SEND FEEDBACK

Daily
Averages
Monthly
Summary
United States of America

ACHANG BAY, GUAM


Home > North America > United States > Guam
Elevation: 10 meters     Latitude: 13 16N     Longitude: 144 45E

WEATHER
 
SELECT A DAY
Number of Records: 351,895;   Date Range: 1/1/95 - 10/24/14
 
SHARE

PRINT THIS DATA

[ ← Previous Day ]
WEATHER ALMANAC - 24 FEBRUARY, 2013
[ Next Day → ]
[ °F ]   °C
Weather ElementAverageHighLow
Temperature26.3 °C29 °C (10:41 am)24.8 °C (2:55 am)
Dewpoint22.3 °C24 °C (2:49 pm)21 °C (4:10 am)
Humidity78.6 %89 % (11:02 pm)66 % (1:00 pm)
Barometer1011.9 hPa1013.5 hPa (8:55 am)1009.5 hPa (3:50 pm)
Wind Speed27.7 km/h37 km/h (12:55 pm)
Wind Gust42.6 km/h (11:32 pm)
Weather ElementAverage
Visibility15.9 km
Wind DirectionENE (53.2 °)

Weather ElementTotal
Precipitation---
Cooling Degree Days8.6 (Base 18.3)
Growing Degree Days16.9 (Base 10)
Averaged from 84 records on 24 February, 2013
WEATHER CONDITIONS BREAKOUT
WIND DIRECTION BREAKOUT
WEATHER BY HOUR - 24 FEBRUARY, 2013
[ °F ]   °C
Local TimeTemperatureDewpointHumidityBarometerVisibilityWind DirectionWind SpeedGust SpeedPrecipitationEventsConditions
12:37 AM25 °C22 °C83 %1012.5 hPa16.1 kmENE (60°)27.8 km/h37 km/hScattered Clouds
12:55 AM25 °C21.8 °C82 %1012.2 hPa16.1 kmENE (60°)24.1 km/hPartly Cloudy
1:31 AM25 °C22 °C83 %1011.9 hPa16.1 kmENE (60°)24.1 km/hMostly Cloudy
1:55 AM25.1 °C22.2 °C84 %1011.5 hPa16.1 kmENE (60°)24.1 km/hMostly Cloudy
1:56 AM25 °C22 °C83 %1011.5 hPa16.1 kmENE (60°)24.1 km/hScattered Clouds
2:30 AM25 °C22 °C83 %1011.2 hPa16.1 kmENE (60°)25.9 km/hMostly Cloudy
2:43 AM25 °C22 °C83 %1011.2 hPa16.1 kmENE (60°)29.6 km/h38.9 km/hScattered Clouds
2:55 AM24.8 °C21.2 °C80 %1011.2 hPa16.1 kmENE (60°)27.8 km/h35.2 km/hScattered Clouds
3:55 AM24.9 °C21.1 °C79 %1011.2 hPa16.1 kmENE (60°)27.8 km/hScattered Clouds
4:10 AM25 °C21 °C78 %1011.2 hPa16.1 kmENE (60°)25.9 km/hMostly Cloudy
4:55 AM25 °C21.6 °C81 %1011.2 hPa16.1 kmENE (60°)22.2 km/hMostly Cloudy
5:07 AM25 °C21 °C78 %1011.2 hPa16.1 kmENE (60°)27.8 km/hMostly Cloudy
5:55 AM24.8 °C21 °C79 %1011.5 hPa16.1 kmENE (60°)22.2 km/hScattered Clouds
6:22 AM25 °C22 °C83 %1011.9 hPa16.1 kmENE (60°)20.4 km/hMostly Cloudy
6:28 AM25 °C22 °C83 %1012.2 hPa16.1 kmENE (60°)24.1 km/hScattered Clouds
6:39 AM25 °C21 °C78 %1012.2 hPa16.1 kmENE (60°)24.1 km/hMostly Cloudy
6:45 AM25 °C22 °C83 %1012.5 hPa16.1 kmENE (60°)20.4 km/hScattered Clouds
6:55 AM25 °C21.6 °C81 %1012.5 hPa16.1 kmENE (60°)22.2 km/hScattered Clouds
7:09 AM25 °C22 °C83 %1012.5 hPa16.1 kmNE (50°)22.2 km/hMostly Cloudy
7:14 AM25 °C22 °C83 %1012.5 hPa16.1 kmNE (50°)24.1 km/hScattered Clouds
7:27 AM25 °C22 °C83 %1012.5 hPa16.1 kmNE (50°)22.2 km/hMostly Cloudy
7:33 AM25 °C22 °C83 %1012.9 hPa16.1 kmNE (50°)22.2 km/hScattered Clouds
7:43 AM26 °C22 °C78 %1012.9 hPa16.1 kmNE (50°)27.8 km/hMostly Cloudy
7:51 AM26 °C22 °C78 %1012.9 hPa16.1 kmENE (60°)25.9 km/hScattered Clouds
7:55 AM25.8 °C22.1 °C80 %1012.9 hPa16.1 kmENE (60°)24.1 km/hScattered Clouds
8:09 AM26 °C22 °C78 %1013.2 hPa16.1 kmNE (50°)25.9 km/hMostly Cloudy
8:55 AM27.2 °C22.6 °C76 %1013.5 hPa16.1 kmNE (50°)29.6 km/hMostly Cloudy
9:29 AM27 °C23 °C79 %1013.5 hPa16.1 kmNE (40°)24.1 km/hMostly Cloudy
9:34 AM27 °C23 °C79 %1013.5 hPa16.1 kmNE (40°)29.6 km/hMostly Cloudy
9:37 AM28 °C23 °C74 %1013.5 hPa16.1 kmNE (50°)25.9 km/hMostly Cloudy
9:42 AM28 °C23 °C74 %1013.5 hPa16.1 kmENE (60°)27.8 km/hMostly Cloudy
9:47 AM28 °C23 °C74 %1013.5 hPa16.1 kmNE (50°)27.8 km/hMostly Cloudy
9:54 AM28 °C23 °C74 %1013.5 hPa16.1 kmNE (50°)25.9 km/hMostly Cloudy
9:55 AM27.9 °C22.9 °C74 %1013.5 hPa16.1 kmNE (50°)27.8 km/hMostly Cloudy
10:41 AM29 °C23 °C70 %1012.9 hPa16.1 kmENE (60°)29.6 km/hScattered Clouds
10:55 AM28.5 °C22.9 °C71 %1012.9 hPa16.1 kmENE (60°)33.3 km/hScattered Clouds
11:24 AM29 °C23 °C70 %1012.5 hPa16.1 kmNE (50°)27.8 km/hMostly Cloudy
11:32 AM28 °C23 °C74 %1012.5 hPa16.1 kmENE (60°)31.5 km/hScattered Clouds
11:55 AM28.8 °C23 °C71 %1012.2 hPa16.1 kmENE (70°)29.6 km/hClear
12:35 PM28 °C23 °C74 %1011.5 hPa16.1 kmENE (60°)29.6 km/hMostly Cloudy
12:55 PM28.6 °C22.1 °C68 %1011.2 hPa16.1 kmENE (60°)37 km/hMostly Cloudy
1:00 PM29 °C22 °C66 %1011.2 hPa16.1 kmNE (50°)35.2 km/hScattered Clouds
1:55 PM28.5 °C22.7 °C71 %1010.2 hPa16.1 kmENE (60°)31.5 km/hScattered Clouds
2:44 PM28 °C23 °C74 %1009.8 hPa16.1 kmENE (60°)31.5 km/hRainLight Rain
2:49 PM28 °C24 °C79 %1009.8 hPa16.1 kmNE (40°)25.9 km/hRainLight Rain
2:50 PM27 °C23 °C79 %1009.8 hPa16.1 kmNE (40°)25.9 km/hRainLight Rain
2:53 PM27 °C23 °C79 %1009.8 hPa16.1 kmNE (50°)29.6 km/hScattered Clouds
2:55 PM27.1 °C23.1 °C79 %1009.8 hPa16.1 kmNE (50°)27.8 km/h0 mmScattered Clouds
3:01 PM28 °C23 °C74 %1009.8 hPa16.1 kmNE (50°)29.6 km/hMostly Cloudy
3:03 PM28 °C23 °C74 %1009.8 hPa16.1 kmNE (50°)29.6 km/hScattered Clouds
3:04 PM28 °C23 °C74 %1009.8 hPa16.1 kmNE (50°)27.8 km/hMostly Cloudy
3:09 PM28 °C22 °C70 %1009.8 hPa16.1 kmNE (50°)27.8 km/hScattered Clouds
3:50 PM28 °C23 °C74 %1009.5 hPa16.1 kmENE (60°)31.5 km/h40.7 km/hMostly Cloudy
3:55 PM28 °C22.6 °C72 %1009.8 hPa16.1 kmNE (50°)33.3 km/hMostly Cloudy
4:01 PM28 °C23 °C74 %1009.8 hPa16.1 kmNE (50°)29.6 km/hScattered Clouds
4:55 PM27.3 °C22.2 °C74 %1010.2 hPa16.1 kmNE (50°)29.6 km/hScattered Clouds
5:55 PM26.6 °C22.3 °C77 %1010.5 hPa16.1 kmNE (50°)27.8 km/hScattered Clouds
6:55 PM25.8 °C22.2 °C80 %1011.2 hPa16.1 kmNE (50°)24.1 km/hMostly Cloudy
7:36 PM26 °C22 °C78 %1011.9 hPa16.1 kmNE (50°)25.9 km/hMostly Cloudy
7:39 PM26 °C22 °C78 %1011.9 hPa16.1 kmNE (50°)25.9 km/h37 km/hScattered Clouds
7:55 PM25.7 °C21.7 °C78 %1011.9 hPa16.1 kmNE (50°)27.8 km/hPartly Cloudy
8:29 PM26 °C22 °C78 %1012.2 hPa16.1 kmENE (60°)24.1 km/hMostly Cloudy
8:31 PM26 °C22 °C78 %1012.2 hPa16.1 kmENE (60°)29.6 km/hScattered Clouds
8:55 PM25.5 °C21.8 °C80 %1012.5 hPa16.1 kmNE (50°)25.9 km/hScattered Clouds
9:03 PM26 °C22 °C78 %1012.2 hPa16.1 kmENE (60°)29.6 km/hMostly Cloudy
9:07 PM26 °C22 °C78 %1012.5 hPa16.1 kmENE (60°)25.9 km/hScattered Clouds
9:09 PM26 °C22 °C78 %1012.5 hPa16.1 kmENE (60°)27.8 km/hMostly Cloudy
9:19 PM26 °C22 °C78 %1012.5 hPa16.1 kmNE (50°)27.8 km/hScattered Clouds
9:34 PM26 °C23 °C83 %1012.5 hPa16.1 kmNE (50°)27.8 km/hMostly Cloudy
9:36 PM26 °C23 °C83 %1012.5 hPa16.1 kmNE (50°)31.5 km/hMostly Cloudy
9:44 PM26 °C23 °C83 %1012.5 hPa16.1 kmNE (40°)27.8 km/hMostly Cloudy
9:54 PM26 °C22 °C78 %1012.9 hPa16.1 kmNE (50°)33.3 km/h40.7 km/hScattered Clouds
9:55 PM25.8 °C22.1 °C80 %1012.9 hPa16.1 kmNE (50°)35.2 km/h40.7 km/hScattered Clouds
10:51 PM26 °C22 °C78 %1012.9 hPa12.9 kmNE (50°)33.3 km/h40.7 km/hRainRain
10:55 PM25.2 °C22.2 °C83 %1012.9 hPa9.7 kmNE (40°)29.6 km/h0 mmRainRain
11:02 PM25 °C23 °C89 %1012.9 hPa12.9 kmNE (50°)27.8 km/hMostly Cloudy
11:21 PM25 °C22 °C83 %1012.9 hPa14.5 kmNE (40°)27.8 km/hRainLight Rain
11:27 PM25 °C22 °C83 %1012.9 hPa12.9 kmNE (50°)24.1 km/hRainLight Rain
11:32 PM25 °C23 °C89 %1012.9 hPa16.1 kmNE (40°)27.8 km/h42.6 km/hMostly Cloudy
11:35 PM25 °C23 °C89 %1012.9 hPa16.1 kmNE (40°)33.3 km/h42.6 km/hMostly Cloudy
11:49 PM25 °C22 °C83 %1012.9 hPa16.1 kmNE (50°)27.8 km/hMostly Cloudy
11:55 PM24.8 °C22.2 °C85 %1012.5 hPa16.1 kmNE (50°)27.8 km/h0 mmScattered Clouds
11:56 PM25 °C22 °C83 %1012.5 hPa16.1 kmNE (50°)29.6 km/hMostly Cloudy
11:59 PM25 °C22 °C83 %1012.5 hPa16.1 kmNE (50°)27.8 km/hScattered Clouds
Hourly data recorded from PGUA, located 0 kilometers away from Achang Bay, Guam







STORIES FROM OUR PARTNERS